Time,TemperatureF,DewpointF,PressureIn,WindDirection,WindDirectionDegrees,WindSpeedMPH,WindSpeedGustMPH,Humidity,HourlyPrecipIn,Conditions,Clouds,dailyrainin,SoftwareType,DateUTC
2013-01-25 00:00:00,15.0,-2.6,30.26,WNW,302,9.0,13.0,45,0.00,,,0.00,Wunderground v.1.15,2013-01-25 05:00:00,
2013-01-25 00:01:00,15.0,-2.6,30.26,NNW,345,9.0,13.0,45,0.00,,,0.00,Wunderground v.1.15,2013-01-25 05:01:00,
2013-01-25 00:02:00,15.1,-2.5,30.26,NW,314,9.0,13.0,45,0.00,,,0.00,Wunderground v.1.15,2013-01-25 05:02:00,
2013-01-25 00:06:00,15.0,-1.6,30.26,West,278,8.0,13.0,47,0.00,,,0.00,Wunderground v.1.15,2013-01-25 05:06:00,
2013-01-25 00:12:00,14.9,-2.6,30.27,NW,311,8.0,16.0,45,0.00,,,0.00,Wunderground v.1.15,2013-01-25 05:12:00,
2013-01-25 00:18:00,14.9,-3.1,30.27,NW,325,9.0,16.0,44,0.00,,,0.00,Wunderground v.1.15,2013-01-25 05:18:00,
2013-01-25 00:24:00,14.9,-2.6,30.27,NW,309,8.0,15.0,45,0.00,,,0.00,Wunderground v.1.15,2013-01-25 05:24:00,
2013-01-25 00:30:00,14.8,-2.7,30.26,NW,311,9.0,9.0,45,0.00,,,0.00,Wunderground v.1.15,2013-01-25 05:30:00,
2013-01-25 00:36:00,14.7,-2.4,30.27,NW,306,8.0,26.0,46,0.00,,,0.00,Wunderground v.1.15,2013-01-25 05:36:00,
2013-01-25 00:42:00,15.0,-2.1,30.27,West,269,10.0,26.0,46,0.00,,,0.00,Wunderground v.1.15,2013-01-25 05:42:00,
2013-01-25 00:47:00,14.9,-2.2,30.27,West,272,10.0,26.0,46,0.00,,,0.00,Wunderground v.1.15,2013-01-25 05:47:00,
2013-01-25 00:53:00,14.7,-2.8,30.28,WNW,289,7.0,26.0,45,0.00,,,0.00,Wunderground v.1.15,2013-01-25 05:53:00,
2013-01-25 00:59:00,14.6,-2.5,30.29,North,360,7.0,26.0,46,0.00,,,0.00,Wunderground v.1.15,2013-01-25 05:59:00,
2013-01-25 01:04:00,14.6,-3.9,30.28,NW,319,7.0,13.0,43,0.00,,,0.00,Wunderground v.1.15,2013-01-25 06:04:00,
2013-01-25 01:10:00,14.6,-2.9,30.28,West,270,9.0,12.0,45,0.00,,,0.00,Wunderground v.1.15,2013-01-25 06:10:00,
2013-01-25 01:16:00,14.6,-2.9,30.28,WNW,285,8.0,12.0,45,0.00,,,0.00,Wunderground v.1.15,2013-01-25 06:16:00,
2013-01-25 01:22:00,14.6,-2.9,30.28,NNW,347,8.0,12.0,45,0.00,,,0.00,Wunderground v.1.15,2013-01-25 06:22:00,
2013-01-25 01:28:00,14.6,-3.4,30.30,West,281,9.0,16.0,44,0.00,,,0.00,Wunderground v.1.15,2013-01-25 06:28:00,
2013-01-25 01:34:00,14.5,-3.5,30.30,NW,311,8.0,23.0,44,0.00,,,0.00,Wunderground v.1.15,2013-01-25 06:34:00,
2013-01-25 01:40:00,14.4,-4.1,30.29,NW,323,8.0,8.0,43,0.00,,,0.00,Wunderground v.1.15,2013-01-25 06:40:00,
2013-01-25 01:46:00,14.5,-3.5,30.29,WSW,247,8.0,23.0,44,0.00,,,0.00,Wunderground v.1.15,2013-01-25 06:46:00,
2013-01-25 01:52:00,14.5,-4.0,30.30,North,9,8.0,23.0,43,0.00,,,0.00,Wunderground v.1.15,2013-01-25 06:52:00,
2013-01-25 01:57:00,14.4,-4.1,30.30,WNW,289,9.0,23.0,43,0.00,,,0.00,Wunderground v.1.15,2013-01-25 06:57:00,
2013-01-25 02:03:00,14.3,-4.2,30.30,North,359,8.0,16.0,43,0.00,,,0.00,Wunderground v.1.15,2013-01-25 07:03:00,
2013-01-25 02:09:00,14.3,-5.1,30.30,WNW,293,10.0,16.0,41,0.00,,,0.00,Wunderground v.1.15,2013-01-25 07:09:00,
2013-01-25 02:15:00,14.3,-4.2,30.31,North,11,9.0,10.0,43,0.00,,,0.00,Wunderground v.1.15,2013-01-25 07:15:00,
2013-01-25 02:21:00,14.1,-4.8,30.30,North,1,8.0,8.0,42,0.00,,,0.00,Wunderground v.1.15,2013-01-25 07:21:00,
2013-01-25 02:27:00,14.0,-3.5,30.30,North,1,7.0,9.0,45,0.00,,,0.00,Wunderground v.1.15,2013-01-25 07:27:00,
2013-01-25 02:33:00,14.1,-3.9,30.30,NNW,336,8.0,21.0,44,0.00,,,0.00,Wunderground v.1.15,2013-01-25 07:33:00,
2013-01-25 02:39:00,13.9,-4.5,30.30,NW,308,8.0,21.0,43,0.00,,,0.00,Wunderground v.1.15,2013-01-25 07:39:00,
2013-01-25 02:44:00,13.9,-4.5,30.31,NW,311,8.0,21.0,43,0.00,,,0.00,Wunderground v.1.15,2013-01-25 07:44:00,
2013-01-25 02:50:00,14.0,-3.9,30.30,WNW,283,9.0,9.0,44,0.00,,,0.00,Wunderground v.1.15,2013-01-25 07:50:00,
2013-01-25 02:56:00,13.9,-4.0,30.30,NW,306,8.0,21.0,44,0.00,,,0.00,Wunderground v.1.15,2013-01-25 07:56:00,
2013-01-25 03:01:00,13.9,-4.0,30.30,WNW,301,9.0,10.0,44,0.00,,,0.00,Wunderground v.1.15,2013-01-25 08:01:00,
2013-01-25 03:06:00,13.8,-3.7,30.30,West,262,7.0,10.0,45,0.00,,,0.00,Wunderground v.1.15,2013-01-25 08:06:00,
2013-01-25 03:12:00,13.9,-4.0,30.30,North,352,7.0,11.0,44,0.00,,,0.00,Wunderground v.1.15,2013-01-25 08:12:00,
2013-01-25 03:18:00,13.9,-4.0,30.30,NW,311,9.0,15.0,44,0.00,,,0.00,Wunderground v.1.15,2013-01-25 08:18:00,
2013-01-25 03:24:00,13.9,-4.5,30.29,West,261,8.0,16.0,43,0.00,,,0.00,Wunderground v.1.15,2013-01-25 08:24:00,
2013-01-25 03:29:00,14.0,-4.4,30.30,WNW,290,9.0,16.0,43,0.00,,,0.00,Wunderground v.1.15,2013-01-25 08:29:00,
2013-01-25 03:35:00,14.0,-4.4,30.29,WNW,303,8.0,18.0,43,0.00,,,0.00,Wunderground v.1.15,2013-01-25 08:35:00,
2013-01-25 03:41:00,14.1,-3.9,30.30,NW,323,7.0,18.0,44,0.00,,,0.00,Wunderground v.1.15,2013-01-25 08:41:00,
2013-01-25 03:47:00,14.1,-4.3,30.30,WNW,295,7.0,18.0,43,0.00,,,0.00,Wunderground v.1.15,2013-01-25 08:47:00,
2013-01-25 03:53:00,14.1,-3.4,30.30,WNW,285,8.0,18.0,45,0.00,,,0.00,Wunderground v.1.15,2013-01-25 08:53:00,
2013-01-25 03:59:00,14.1,-4.8,30.31,NW,307,8.0,20.0,42,0.00,,,0.00,Wunderground v.1.15,2013-01-25 08:59:00,
2013-01-25 04:05:00,14.1,-3.4,30.31,North,352,8.0,10.0,45,0.00,,,0.00,Wunderground v.1.15,2013-01-25 09:05:00,
2013-01-25 04:11:00,14.1,-3.9,30.31,NW,312,7.0,8.0,44,0.00,,,0.00,Wunderground v.1.15,2013-01-25 09:11:00,
2013-01-25 04:17:00,14.0,-3.5,30.31,North,358,6.0,8.0,45,0.00,,,0.00,Wunderground v.1.15,2013-01-25 09:17:00,
2013-01-25 04:22:00,14.1,-3.4,30.31,NNW,333,6.0,10.0,45,0.00,,,0.00,Wunderground v.1.15,2013-01-25 09:22:00,
2013-01-25 04:28:00,14.0,-3.5,30.32,WNW,291,7.0,10.0,45,0.00,,,0.00,Wunderground v.1.15,2013-01-25 09:28:00,
2013-01-25 04:34:00,14.0,-2.6,30.32,WNW,303,6.0,22.0,47,0.00,,,0.00,Wunderground v.1.15,2013-01-25 09:34:00,
2013-01-25 04:40:00,14.0,-2.6,30.32,West,278,6.0,6.0,47,0.00,,,0.00,Wunderground v.1.15,2013-01-25 09:40:00,
2013-01-25 04:46:00,14.1,-2.9,30.32,WNW,293,7.0,22.0,46,0.00,,,0.00,Wunderground v.1.15,2013-01-25 09:46:00,
2013-01-25 04:52:00,14.2,-2.8,30.31,WNW,300,8.0,22.0,46,0.00,,,0.00,Wunderground v.1.15,2013-01-25 09:52:00,
2013-01-25 04:58:00,14.1,-2.5,30.31,NW,304,7.0,22.0,47,0.00,,,0.00,Wunderground v.1.15,2013-01-25 09:58:00,
2013-01-25 05:04:00,14.0,-3.0,30.31,West,271,6.0,11.0,46,0.00,,,0.00,Wunderground v.1.15,2013-01-25 10:04:00,
2013-01-25 05:10:00,13.9,-2.7,30.31,WNW,303,6.0,8.0,47,0.00,,,0.00,Wunderground v.1.15,2013-01-25 10:10:00,
2013-01-25 05:16:00,13.9,-2.7,30.31,WNW,295,6.0,8.0,47,0.00,,,0.00,Wunderground v.1.15,2013-01-25 10:16:00,
2013-01-25 05:22:00,14.0,-2.6,30.32,NW,304,7.0,12.0,47,0.00,,,0.00,Wunderground v.1.15,2013-01-25 10:22:00,
2013-01-25 05:28:00,14.0,-2.6,30.32,West,271,7.0,12.0,47,0.00,,,0.00,Wunderground v.1.15,2013-01-25 10:28:00,
2013-01-25 05:34:00,14.2,-2.4,30.33,West,277,7.0,21.0,47,0.00,,,0.00,Wunderground v.1.15,2013-01-25 10:34:00,
2013-01-25 05:40:00,14.1,-2.5,30.33,NNW,337,7.0,18.0,47,0.00,,,0.00,Wunderground v.1.15,2013-01-25 10:40:00,
2013-01-25 05:45:00,14.1,-2.0,30.33,West,269,6.0,18.0,48,0.00,,,0.00,Wunderground v.1.15,2013-01-25 10:45:00,
2013-01-25 05:51:00,14.2,-1.9,30.33,NW,311,6.0,18.0,48,0.00,,,0.00,Wunderground v.1.15,2013-01-25 10:51:00,
2013-01-25 05:57:00,14.2,-2.4,30.33,NNW,347,8.0,18.0,47,0.00,,,0.00,Wunderground v.1.15,2013-01-25 10:57:00,
2013-01-25 06:03:00,14.1,-2.0,30.32,NNW,335,6.0,10.0,48,0.00,,,0.00,Wunderground v.1.15,2013-01-25 11:03:00,
2013-01-25 06:09:00,14.0,-2.1,30.32,NNW,334,5.0,11.0,48,0.00,,,0.00,Wunderground v.1.15,2013-01-25 11:09:00,
2013-01-25 06:15:00,14.0,-2.1,30.32,NW,326,6.0,7.0,48,0.00,,,0.00,Wunderground v.1.15,2013-01-25 11:15:00,
2013-01-25 06:21:00,14.0,-2.6,30.32,North,353,6.0,7.0,47,0.00,,,0.00,Wunderground v.1.15,2013-01-25 11:21:00,
2013-01-25 06:26:00,13.9,-2.7,30.31,North,360,6.0,7.0,47,0.00,,,0.00,Wunderground v.1.15,2013-01-25 11:26:00,
2013-01-25 06:32:00,13.8,-2.7,30.31,NW,325,6.0,21.0,47,0.00,,,0.00,Wunderground v.1.15,2013-01-25 11:32:00,
2013-01-25 06:38:00,13.9,-2.7,30.31,West,266,6.0,21.0,47,0.00,,,0.00,Wunderground v.1.15,2013-01-25 11:38:00,
2013-01-25 06:44:00,13.8,-2.3,30.32,WNW,298,5.0,21.0,48,0.00,,,0.00,Wunderground v.1.15,2013-01-25 11:44:00,
2013-01-25 06:50:00,13.9,-2.7,30.32,NNW,340,5.0,21.0,47,0.00,,,0.00,Wunderground v.1.15,2013-01-25 11:50:00,
2013-01-25 06:56:00,14.0,-3.0,30.32,NNW,345,6.0,21.0,46,0.00,,,0.00,Wunderground v.1.15,2013-01-25 11:56:00,
2013-01-25 07:02:00,14.0,-2.6,30.31,NNW,337,5.0,9.0,47,0.00,,,0.00,Wunderground v.1.15,2013-01-25 12:02:00,
2013-01-25 07:08:00,14.1,-3.4,30.32,NW,304,5.0,9.0,45,0.00,,,0.00,Wunderground v.1.15,2013-01-25 12:08:00,
2013-01-25 07:14:00,14.3,-1.4,30.31,WNW,291,5.0,7.0,49,0.00,,,0.00,Wunderground v.1.15,2013-01-25 12:14:00,
2013-01-25 07:20:00,14.4,-0.9,30.32,WNW,288,5.0,8.0,50,0.00,,,0.00,Wunderground v.1.15,2013-01-25 12:20:00,
2013-01-25 07:26:00,14.4,-1.3,30.32,NW,321,6.0,8.0,49,0.00,,,0.00,Wunderground v.1.15,2013-01-25 12:26:00,
2013-01-25 07:32:00,14.5,-0.8,30.32,WNW,302,6.0,15.0,50,0.00,,,0.00,Wunderground v.1.15,2013-01-25 12:32:00,
2013-01-25 07:38:00,14.6,-0.7,30.32,NW,326,6.0,15.0,50,0.00,,,0.00,Wunderground v.1.15,2013-01-25 12:38:00,
2013-01-25 07:44:00,14.8,-0.1,30.33,WNW,294,7.0,15.0,51,0.00,,,0.00,Wunderground v.1.15,2013-01-25 12:44:00,
2013-01-25 07:50:00,15.0,0.5,30.33,NW,317,7.0,7.0,52,0.00,,,0.00,Wunderground v.1.15,2013-01-25 12:50:00,
2013-01-25 07:56:00,15.2,0.7,30.33,NNW,332,7.0,15.0,52,0.00,,,0.00,Wunderground v.1.15,2013-01-25 12:56:00,
2013-01-25 08:02:00,15.4,0.5,30.33,NW,307,6.0,6.0,51,0.00,,,0.00,Wunderground v.1.15,2013-01-25 13:02:00,
2013-01-25 08:08:00,15.6,0.2,30.33,NW,323,5.0,10.0,50,0.00,,,0.00,Wunderground v.1.15,2013-01-25 13:08:00,
2013-01-25 08:14:00,15.7,0.3,30.33,NNW,339,5.0,7.0,50,0.00,,,0.00,Wunderground v.1.15,2013-01-25 13:14:00,
2013-01-25 08:19:00,15.9,0.9,30.33,NW,309,5.0,8.0,51,0.00,,,0.00,Wunderground v.1.15,2013-01-25 13:19:00,
2013-01-25 08:25:00,16.2,1.6,30.34,NW,326,5.0,9.0,52,0.00,,,0.00,Wunderground v.1.15,2013-01-25 13:25:00,
2013-01-25 08:31:00,16.6,2.4,30.34,WNW,290,6.0,9.0,53,0.00,,,0.00,Wunderground v.1.15,2013-01-25 13:31:00,
2013-01-25 08:36:00,16.7,2.5,30.35,NW,304,6.0,15.0,53,0.00,,,0.00,Wunderground v.1.15,2013-01-25 13:36:00,
2013-01-25 08:42:00,16.8,2.2,30.34,NNW,342,6.0,15.0,52,0.00,,,0.00,Wunderground v.1.15,2013-01-25 13:42:00,
2013-01-25 08:48:00,17.1,1.6,30.34,NW,322,7.0,15.0,50,0.00,,,0.00,Wunderground v.1.15,2013-01-25 13:48:00,
2013-01-25 08:54:00,17.4,1.9,30.35,WNW,294,7.0,15.0,50,0.00,,,0.00,Wunderground v.1.15,2013-01-25 13:54:00,
2013-01-25 09:00:00,17.6,2.9,30.34,West,279,6.0,6.0,52,0.00,,,0.00,Wunderground v.1.15,2013-01-25 14:00:00,
2013-01-25 09:05:00,17.9,3.2,30.34,West,272,6.0,7.0,52,0.00,,,0.00,Wunderground v.1.15,2013-01-25 14:05:00,
2013-01-25 09:11:00,18.0,2.9,30.34,WSW,237,6.0,6.0,51,0.00,,,0.00,Wunderground v.1.15,2013-01-25 14:11:00,
2013-01-25 09:17:00,18.2,3.1,30.34,NNW,332,5.0,9.0,51,0.00,,,0.00,Wunderground v.1.15,2013-01-25 14:17:00,
2013-01-25 09:23:00,18.7,3.1,30.34,WNW,297,5.0,7.0,50,0.00,,,0.00,Wunderground v.1.15,2013-01-25 14:23:00,
2013-01-25 09:29:00,18.8,2.3,30.34,NNW,341,6.0,7.0,48,0.00,,,0.00,Wunderground v.1.15,2013-01-25 14:29:00,
2013-01-25 09:35:00,18.8,2.3,30.34,North,360,6.0,15.0,48,0.00,,,0.00,Wunderground v.1.15,2013-01-25 14:35:00,
2013-01-25 09:41:00,19.1,2.1,30.34,WNW,284,6.0,15.0,47,0.00,,,0.00,Wunderground v.1.15,2013-01-25 14:41:00,
2013-01-25 09:47:00,19.4,2.4,30.34,NW,312,5.0,15.0,47,0.00,,,0.00,Wunderground v.1.15,2013-01-25 14:47:00,
2013-01-25 09:53:00,19.3,2.3,30.34,WNW,295,7.0,15.0,47,0.00,,,0.00,Wunderground v.1.15,2013-01-25 14:53:00,
2013-01-25 09:58:00,19.2,3.1,30.34,WNW,297,7.0,15.0,49,0.00,,,0.00,Wunderground v.1.15,2013-01-25 14:58:00,
2013-01-25 10:04:00,19.2,2.7,30.33,WNW,288,6.0,8.0,48,0.00,,,0.00,Wunderground v.1.15,2013-01-25 15:04:00,
2013-01-25 10:10:00,19.4,2.9,30.33,WNW,288,6.0,6.0,48,0.00,,,0.00,Wunderground v.1.15,2013-01-25 15:10:00,
2013-01-25 10:16:00,19.5,2.0,30.32,North,7,6.0,10.0,46,0.00,,,0.00,Wunderground v.1.15,2013-01-25 15:16:00,
2013-01-25 10:22:00,19.3,2.3,30.33,NNW,341,6.0,13.0,47,0.00,,,0.00,Wunderground v.1.15,2013-01-25 15:22:00,
2013-01-25 10:28:00,19.4,2.4,30.33,WNW,283,6.0,13.0,47,0.00,,,0.00,Wunderground v.1.15,2013-01-25 15:28:00,
2013-01-25 10:34:00,19.8,2.3,30.32,NNW,340,6.0,14.0,46,0.00,,,0.00,Wunderground v.1.15,2013-01-25 15:34:00,
2013-01-25 10:40:00,20.1,2.6,30.32,WNW,288,5.0,14.0,46,0.00,,,0.00,Wunderground v.1.15,2013-01-25 15:40:00,
2013-01-25 10:46:00,20.5,2.5,30.32,West,271,4.0,14.0,45,0.00,,,0.00,Wunderground v.1.15,2013-01-25 15:46:00,
2013-01-25 10:52:00,20.5,2.0,30.32,West,269,5.0,14.0,44,0.00,,,0.00,Wunderground v.1.15,2013-01-25 15:52:00,
2013-01-25 10:57:00,20.4,3.3,30.31,NNW,339,5.0,14.0,47,0.00,,,0.00,Wunderground v.1.15,2013-01-25 15:57:00,
2013-01-25 11:02:00,20.2,2.7,30.30,West,271,5.0,6.0,46,0.00,,,0.00,Wunderground v.1.15,2013-01-25 16:02:00,
2013-01-25 11:08:00,20.5,3.0,30.31,WNW,291,5.0,6.0,46,0.00,,,0.00,Wunderground v.1.15,2013-01-25 16:08:00,
2013-01-25 11:14:00,20.7,3.2,30.30,NNW,340,4.0,10.0,46,0.00,,,0.00,Wunderground v.1.15,2013-01-25 16:14:00,
2013-01-25 11:20:00,20.7,2.2,30.30,NW,313,6.0,6.0,44,0.00,,,0.00,Wunderground v.1.15,2013-01-25 16:20:00,
2013-01-25 11:26:00,20.7,1.7,30.30,NW,312,6.0,9.0,43,0.00,,,0.00,Wunderground v.1.15,2013-01-25 16:26:00,
2013-01-25 11:32:00,20.8,2.3,30.29,North,351,6.0,13.0,44,0.00,,,0.00,Wunderground v.1.15,2013-01-25 16:32:00,
2013-01-25 11:38:00,20.8,2.3,30.29,NW,310,5.0,13.0,44,0.00,,,0.00,Wunderground v.1.15,2013-01-25 16:38:00,
2013-01-25 11:44:00,20.9,1.9,30.29,West,275,7.0,14.0,43,0.00,,,0.00,Wunderground v.1.15,2013-01-25 16:44:00,
2013-01-25 11:50:00,21.4,2.8,30.29,WNW,284,7.0,7.0,44,0.00,,,0.00,Wunderground v.1.15,2013-01-25 16:50:00,
2013-01-25 11:56:00,21.6,3.0,30.29,West,264,6.0,13.0,44,0.00,,,0.00,Wunderground v.1.15,2013-01-25 16:56:00,
2013-01-25 12:02:00,21.8,3.2,30.28,SW,231,6.0,9.0,44,0.00,,,0.00,Wunderground v.1.15,2013-01-25 17:02:00,
2013-01-25 12:08:00,22.2,3.1,30.29,North,353,6.0,9.0,43,0.00,,,0.00,Wunderground v.1.15,2013-01-25 17:08:00,
2013-01-25 12:14:00,22.9,4.2,30.28,West,274,4.0,6.0,44,0.00,,,0.00,Wunderground v.1.15,2013-01-25 17:14:00,
2013-01-25 12:20:00,22.6,3.4,30.28,West,273,5.0,5.0,43,0.00,,,0.00,Wunderground v.1.15,2013-01-25 17:20:00,
2013-01-25 12:26:00,22.5,3.3,30.28,WSW,251,6.0,11.0,43,0.00,,,0.00,Wunderground v.1.15,2013-01-25 17:26:00,
2013-01-25 12:32:00,22.2,3.1,30.27,NNW,345,6.0,14.0,43,0.00,,,0.00,Wunderground v.1.15,2013-01-25 17:32:00,
2013-01-25 12:38:00,22.5,4.8,30.27,NW,325,5.0,14.0,46,0.00,,,0.00,Wunderground v.1.15,2013-01-25 17:38:00,
2013-01-25 12:43:00,22.7,5.0,30.26,WSW,256,6.0,14.0,46,0.00,,,0.00,Wunderground v.1.15,2013-01-25 17:43:00,
2013-01-25 12:49:00,22.6,4.9,30.26,SW,236,6.0,14.0,46,0.00,,,0.00,Wunderground v.1.15,2013-01-25 17:49:00,
2013-01-25 12:55:00,22.7,5.0,30.25,NW,314,6.0,14.0,46,0.00,,,0.00,Wunderground v.1.15,2013-01-25 17:55:00,
2013-01-25 13:00:00,22.9,5.6,30.25,WSW,257,6.0,6.0,47,0.00,,,0.00,Wunderground v.1.15,2013-01-25 18:00:00,
2013-01-25 13:06:00,23.1,5.4,30.25,NNW,328,6.0,10.0,46,0.00,,,0.00,Wunderground v.1.15,2013-01-25 18:06:00,
2013-01-25 13:12:00,23.3,5.5,30.24,WSW,248,6.0,12.0,46,0.00,,,0.00,Wunderground v.1.15,2013-01-25 18:12:00,
2013-01-25 13:18:00,23.5,5.7,30.24,West,276,5.0,12.0,46,0.00,,,0.00,Wunderground v.1.15,2013-01-25 18:18:00,
2013-01-25 13:24:00,23.5,6.2,30.24,WNW,297,5.0,11.0,47,0.00,,,0.00,Wunderground v.1.15,2013-01-25 18:24:00,
2013-01-25 13:30:00,23.5,5.7,30.23,WSW,237,6.0,7.0,46,0.00,,,0.00,Wunderground v.1.15,2013-01-25 18:30:00,
2013-01-25 13:35:00,24.0,6.7,30.23,WSW,238,5.0,14.0,47,0.00,,,0.00,Wunderground v.1.15,2013-01-25 18:35:00,
2013-01-25 13:41:00,23.8,5.5,30.23,West,269,5.0,14.0,45,0.00,,,0.00,Wunderground v.1.15,2013-01-25 18:41:00,
2013-01-25 13:47:00,23.8,5.0,30.22,West,274,5.0,14.0,44,0.00,,,0.00,Wunderground v.1.15,2013-01-25 18:47:00,